Total_Precipitation_Accumulation
0.31 0.47 0.68 0.92 1.15 1.24 1.27 1.33 1.35 1.54 1.75 2.03 2.28 2.41 2.49 2.69 2.78 2.83 2.94 2.93 2.87 2.92 2.90 2.78 2.61 2.41 2.25 2.09 1.95 1.78 1.60 1.41 1.29 1.17 0.96 0.75 0.63 0.65 0.63 0.61 0.61 0.60 0.57
0.48 0.76 1.03 1.38 1.51 1.52 1.50 1.56 1.62 1.81 2.06 2.42 2.80 3.19 3.33 3.46 3.48 3.49 3.66 3.77 3.76 3.81 3.86 3.69 3.45 3.24 2.87 2.42 2.05 1.83 1.71 1.53 1.42 1.31 1.19 0.89 0.68 0.56 0.45 0.49 0.53 0.54 0.55
0.80 1.02 1.22 1.35 1.53 1.64 1.71 1.77 2.01 2.36 2.76 3.19 3.66 4.04 4.28 4.30 4.23 4.00 3.99 4.11 4.12 4.14 4.24 4.17 3.85 3.39 2.84 2.34 2.08 1.94 1.80 1.65 1.52 1.35 1.27 1.09 0.88 0.65 0.46 0.40 0.38 0.40 0.38
0.82 0.98 1.18 1.39 1.50 1.64 1.81 1.92 2.20 2.70 3.13 3.56 4.14 4.59 4.80 4.97 5.05 4.84 4.54 4.33 4.17 4.07 3.97 3.79 3.36 2.90 2.51 2.22 2.06 1.90 1.69 1.61 1.46 1.33 1.12 0.97 0.85 0.73 0.55 0.41 0.32 0.28 0.24
0.58 0.75 0.92 1.24 1.50 1.59 1.62 1.72 2.10 2.67 3.38 4.03 4.53 4.97 5.26 5.32 5.25 4.91 4.56 4.17 3.80 3.40 3.08 2.78 2.49 2.30 2.09 1.86 1.67 1.52 1.36 1.20 1.08 1.01 0.93 0.82 0.73 0.63 0.54 0.45 0.36 0.31 0.27
0.42 0.51 0.64 0.90 1.22 1.32 1.47 1.71 2.05 2.72 3.45 4.02 4.47 4.80 5.09 5.04 4.73 4.30 3.84 3.55 3.19 2.76 2.40 2.23 1.99 1.79 1.57 1.34 1.18 1.06 0.97 0.90 0.86 0.81 0.73 0.67 0.62 0.57 0.54 0.48 0.38 0.32 0.29
0.37 0.43 0.51 0.69 0.95 1.14 1.42 1.79 2.18 2.69 3.15 3.64 4.01 4.20 4.34 4.35 4.23 3.96 3.57 3.24 2.87 2.49 2.09 1.77 1.58 1.37 1.16 1.02 0.91 0.82 0.73 0.68 0.65 0.63 0.58 0.52 0.49 0.46 0.45 0.42 0.36 0.33 0.30
0.45 0.53 0.65 0.78 0.92 1.05 1.25 1.60 1.94 2.35 2.60 2.81 3.11 3.29 3.42 3.43 3.30 3.12 2.84 2.50 2.17 1.92 1.65 1.28 1.00 0.83 0.69 0.62 0.59 0.58 0.57 0.53 0.50 0.47 0.44 0.39 0.36 0.34 0.33 0.33 0.33 0.36 0.34
0.42 0.54 0.66 0.75 0.83 0.91 1.09 1.26 1.44 1.70 1.98 2.19 2.31 2.41 2.45 2.36 2.26 2.08 1.86 1.67 1.49 1.26 1.03 0.82 0.68 0.58 0.51 0.44 0.40 0.40 0.37 0.37 0.39 0.39 0.36 0.33 0.30 0.28 0.27 0.26 0.27 0.31 0.35
0.44 0.52 0.58 0.63 0.67 0.70 0.84 0.98 1.11 1.25 1.43 1.56 1.59 1.54 1.53 1.51 1.38 1.25 1.14 0.99 0.84 0.72 0.63 0.55 0.50 0.45 0.41 0.37 0.35 0.32 0.28 0.27 0.29 0.30 0.30 0.28 0.26 0.26 0.25 0.24 0.23 0.23 0.26
0.51 0.50 0.51 0.52 0.50 0.51 0.61 0.71 0.78 0.92 1.03 1.08 1.08 0.99 0.94 0.87 0.81 0.74 0.71 0.62 0.53 0.49 0.46 0.42 0.39 0.36 0.33 0.30 0.28 0.26 0.24 0.24 0.27 0.28 0.29 0.30 0.28 0.25 0.21 0.20 0.19 0.19 0.20
0.54 0.48 0.44 0.41 0.40 0.43 0.47 0.53 0.60 0.65 0.67 0.66 0.62 0.60 0.57 0.55 0.54 0.51 0.48 0.48 0.45 0.42 0.39 0.36 0.33 0.31 0.30 0.29 0.28 0.26 0.24 0.24 0.25 0.25 0.24 0.23 0.22 0.21 0.20 0.19 0.18 0.18 0.20
0.56 0.51 0.47 0.43 0.42 0.45 0.44 0.42 0.44 0.46 0.48 0.46 0.45 0.43 0.44 0.45 0.46 0.46 0.45 0.45 0.44 0.41 0.38 0.34 0.33 0.31 0.29 0.27 0.26 0.25 0.23 0.21 0.19 0.18 0.17 0.15 0.13 0.13 0.12 0.11 0.10 0.10 0.10
0.58 0.58 0.61 0.57 0.51 0.47 0.46 0.42 0.41 0.39 0.40 0.39 0.38 0.35 0.33 0.35 0.38 0.38 0.37 0.36 0.37 0.39 0.39 0.37 0.34 0.30 0.26 0.21 0.18 0.15 0.13 0.11 0.09 0.08 0.06 0.05 0.05 0.07 0.09 0.08 0.08 0.09 0.11
0.70 0.71 0.72 0.65 0.58 0.55 0.52 0.49 0.48 0.46 0.44 0.43 0.44 0.41 0.36 0.35 0.37 0.38 0.39 0.36 0.34 0.31 0.27 0.23 0.19 0.15 0.11 0.09 0.06 0.05 0.04 0.03 0.02 0.02 0.02 0.02 0.03 0.05 0.06 0.06 0.09 0.13 0.17
0.93 0.90 0.83 0.76 0.72 0.70 0.66 0.62 0.58 0.56 0.55 0.54 0.54 0.54 0.52 0.50 0.46 0.41 0.37 0.30 0.25 0.19 0.14 0.10 0.08 0.06 0.04 0.03 0.02 0.01 0.01 0.02 0.02 0.02 0.03 0.02 0.03 0.02 0.02 0.05 0.10 0.16 0.19
1.08 1.06 1.03 0.96 0.89 0.84 0.81 0.78 0.72 0.67 0.65 0.64 0.62 0.60 0.56 0.50 0.41 0.30 0.24 0.19 0.15 0.12 0.09 0.06 0.04 0.04 0.02 0.01 0.00 0.00 0.01 0.02 0.04 0.04 0.05 0.03 0.02 0.03 0.05 0.06 0.07 0.09 0.10
1.07 1.07 1.05 1.05 1.00 0.92 0.84 0.81 0.77 0.70 0.67 0.65 0.60 0.54 0.44 0.35 0.27 0.21 0.18 0.14 0.12 0.10 0.07 0.05 0.05 0.05 0.02 0.00 0.00 0.00 0.01 0.03 0.04 0.04 0.05 0.05 0.06 0.06 0.06 0.05 0.06 0.11 0.14
1.20 1.16 1.09 1.01 0.97 0.91 0.83 0.80 0.78 0.73 0.64 0.57 0.46 0.37 0.28 0.21 0.15 0.14 0.14 0.13 0.11 0.08 0.07 0.06 0.06 0.07 0.06 0.01 0.00 0.00 0.01 0.03 0.04 0.04 0.03 0.04 0.07 0.07 0.07 0.07 0.12 0.18 0.22
1.03 0.96 0.87 0.78 0.74 0.73 0.69 0.64 0.60 0.55 0.46 0.34 0.25 0.21 0.19 0.17 0.14 0.12 0.12 0.11 0.10 0.09 0.07 0.06 0.06 0.08 0.08 0.02 0.00 0.00 0.01 0.03 0.04 0.06 0.08 0.06 0.06 0.05 0.05 0.06 0.15 0.23 0.25
0.75 0.70 0.66 0.66 0.63 0.55 0.47 0.42 0.37 0.33 0.27 0.21 0.18 0.16 0.14 0.11 0.12 0.12 0.11 0.10 0.10 0.11 0.10 0.09 0.09 0.09 0.05 0.02 0.00 0.00 0.01 0.02 0.04 0.09 0.16 0.16 0.08 0.05 0.05 0.07 0.13 0.19 0.17
0.50 0.47 0.47 0.48 0.44 0.36 0.31 0.30 0.27 0.21 0.17 0.17 0.17 0.16 0.13 0.09 0.09 0.12 0.12 0.11 0.12 0.14 0.14 0.14 0.12 0.10 0.07 0.03 0.01 0.00 0.00 0.01 0.05 0.14 0.18 0.17 0.09 0.07 0.10 0.11 0.15 0.17 0.24
0.35 0.36 0.32 0.30 0.30 0.29 0.27 0.25 0.22 0.18 0.17 0.19 0.19 0.17 0.13 0.11 0.10 0.11 0.12 0.12 0.13 0.12 0.10 0.11 0.12 0.11 0.10 0.07 0.01 0.00 0.00 0.01 0.05 0.12 0.11 0.12 0.13 0.15 0.26 0.24 0.21 0.28 0.42
0.27 0.28 0.26 0.25 0.26 0.24 0.24 0.24 0.20 0.20 0.24 0.25 0.21 0.16 0.14 0.12 0.10 0.11 0.09 0.09 0.11 0.08 0.08 0.10 0.10 0.11 0.11 0.06 0.02 0.02 0.04 0.05 0.08 0.10 0.14 0.22 0.28 0.32 0.39 0.43 0.48 0.50 0.50
0.25 0.25 0.26 0.24 0.20 0.18 0.18 0.18 0.20 0.23 0.29 0.27 0.20 0.15 0.12 0.11 0.12 0.11 0.07 0.05 0.06 0.02 0.04 0.06 0.06 0.06 0.06 0.03 0.02 0.02 0.02 0.03 0.05 0.07 0.19 0.35 0.41 0.47 0.50 0.53 0.57 0.59 0.52
0.20 0.23 0.24 0.19 0.16 0.15 0.15 0.15 0.17 0.18 0.22 0.24 0.18 0.11 0.08 0.08 0.08 0.11 0.11 0.05 0.01 0.01 0.01 0.01 0.01 0.02 0.03 0.02 0.02 0.02 0.02 0.04 0.07 0.13 0.28 0.35 0.39 0.43 0.43 0.43 0.47 0.52 0.51